Location: Leiter
(44.7178°N, 106.2687°W)
Time: 09:05:23
(UTC+00:00)

DX 1 - Pass Details

Date: 02 July 2022
Orbit: 617 x 629 km, 98.4° (Epoch: 09 August)

Event Time Altitude Azimuth Distance (km) Brightness Sun altitude
Rises 05:05:39 0° 4° (N) 2,930 ? -16.6°
Reaches altitude 10° 05:08:01 10° 355° (N) 2,017 ? -16.8°
Maximum altitude 05:11:55 32° 293° (WNW) 1,077 ? -17.2°
Drops below altitude 10° 05:15:48 10° 229° (SW) 1,998 ? -17.5°
Enters shadow 05:17:29 - 222° (SW) 2,644 ? -17.6°
